Volver al catálogo

ARIANE 40 R/B

ActivoSSO
NORAD 20443·ROCKET BODY·🇫🇷 France

Lanzado Jan 22, 1990 desde Guiana Space Centre

Loading…

Próximos Pases (próximas 24 horas)

TLE

ActualizadoSource: Space-Track

Época: Sep 14, 2026, 09:43 UTC

1 20443U 90005H   26257.40548716  .00000137  00000-0  56835-4 0  9996
2 20443  98.2870 312.2084 0010018   4.1048 356.0222 14.39962834919969

Sigue ARIANE 40 R/B en tiempo real con AllMySat

Download on the App Store